Weather History for KHIB - September, 2012

Change the Weather History Date:

Friday, September 21, 2012

  Actual Average Record
Temperature  
Mean Temperature 44 °F -  
Max Temperature 57 °F 59 °F 77 °F (2005)
Min Temperature 33 °F 38 °F 26 °F (1985)
Degree Days  
Heating Degree Days 21    
Moisture  
Dew Point 36 °F    
Average Humidity 84    
Maximum Humidity 97    
Minimum Humidity 47    
Precipitation  
Precipitation 0.31 in - - ()
Sea Level Pressure  
Sea Level Pressure 29.81 in    
Wind  
Wind Speed 9 mph (WNW)    
Max Wind Speed 25 mph    
Max Gust Speed 44 mph    
Visibility 8 miles    
Events Rain , Snow    
Averages and records for this station are not official NWS values.
T = Trace of Precipitation, MM = Missing Value Source: NWS Daily Summary

Daily Weather History Graph

Daily Weather History Graph

Search for Another Location

Airport or City:

Trip Planner

Search our weather history database for the weather conditions in past years. The results will help you decide how hot, cold, wet, or windy it might be!

Date:

Astronomy

Sep. 21, 2012 Rise Set
Actual Time 6:57 AM CDT 7:10 PM CDT
Civil Twilight 6:26 AM CDT 7:40 PM CDT
Nautical Twilight 5:50 AM CDT 8:16 PM CDT
Astronomical Twilight 5:13 AM CDT 8:53 PM CDT
Moon 1:45 PM CDT (9/21) 10:46 PM CDT (9/21)
Length of Visible Light 13h 13m
Length of Day
12h 12m
Waxing Crescent, 37% of the Moon is Illuminated
Sep 21
Waxing Crescent
Sep 22
First Quarter
Sep 29
Full
Oct 8
Last Quarter
Oct 15
New

Hourly Weather History & Observations

Time (CDT) Temp. Windchill Dew Point Humidity Pressure Visibility Wind Dir Wind Speed Gust Speed Precip Events Conditions
12:53 AM 43.0 °F 40.3 °F 41.0 °F 93% 29.83 in 10.0 mi WNW 4.6 mph - N/A   Overcast
1:53 AM 42.1 °F 40.2 °F 41.0 °F 96% 29.83 in 10.0 mi West 3.5 mph - N/A   Scattered Clouds
2:53 AM 41.0 °F 39.0 °F 39.0 °F 93% 29.82 in 10.0 mi West 3.5 mph - N/A   Scattered Clouds
3:53 AM 39.9 °F 35.8 °F 39.0 °F 97% 29.83 in 10.0 mi West 5.8 mph - N/A   Clear
4:53 AM 35.1 °F 31.0 °F 34.0 °F 96% 29.83 in 10.0 mi WNW 4.6 mph - N/A   Clear
5:53 AM 34.0 °F 28.8 °F 33.1 °F 96% 29.84 in 10.0 mi WNW 5.8 mph - N/A   Clear
6:53 AM 34.0 °F 28.8 °F 33.1 °F 96% 29.85 in 10.0 mi NW 5.8 mph - N/A   Clear
7:53 AM 37.0 °F 31.6 °F 35.1 °F 93% 29.85 in 10.0 mi NW 6.9 mph - N/A   Clear
8:53 AM 44.1 °F 39.5 °F 39.9 °F 85% 29.85 in 10.0 mi NW 8.1 mph - N/A   Clear
9:53 AM 46.9 °F - 41.0 °F 80% 29.85 in 10.0 mi WNW 8.1 mph - N/A   Mostly Cloudy
10:53 AM 48.9 °F - 39.9 °F 71% 29.84 in 10.0 mi WNW 13.8 mph 17.3 mph N/A   Partly Cloudy
11:53 AM 52.0 °F - 37.9 °F 59% 29.83 in 10.0 mi NW 10.4 mph - N/A   Scattered Clouds
12:53 PM 53.1 °F - 36.0 °F 52% 29.82 in 10.0 mi WNW 10.4 mph - N/A   Scattered Clouds
1:53 PM 55.0 °F - 35.1 °F 47% 29.80 in 10.0 mi WNW 8.1 mph 16.1 mph 0.00 in   Overcast
2:50 PM 42.8 °F 38.0 °F 37.4 °F 81% 29.78 in 2.0 mi West 8.1 mph 34.5 mph 0.10 in Rain Rain
2:53 PM 43.0 °F 38.8 °F 37.9 °F 82% 29.82 in 4.0 mi WNW 6.9 mph 17.3 mph 0.11 in Rain Light Rain
3:53 PM 52.0 °F - 39.9 °F 63% 29.77 in 10.0 mi West 8.1 mph 17.3 mph 0.00 in   Mostly Cloudy
4:53 PM 52.0 °F - 35.1 °F 53% 29.77 in 10.0 mi West 4.6 mph - N/A   Scattered Clouds
5:53 PM 45.0 °F 36.0 °F 37.0 °F 74% 29.81 in 7.0 mi WNW 25.3 mph 43.7 mph 0.01 in Rain Light Rain
6:04 PM 42.8 °F 35.4 °F 39.2 °F 87% 29.77 in 2.5 mi WNW 15.0 mph 39.1 mph 0.03 in Rain Rain
6:12 PM 42.8 °F 38.6 °F 39.2 °F 87% 29.75 in 6.0 mi WNW 6.9 mph - 0.05 in Rain Rain
6:19 PM 42.8 °F 39.3 °F 39.2 °F 87% 29.76 in 10.0 mi West 5.8 mph - 0.05 in Rain Light Rain
6:53 PM 42.1 °F 32.6 °F 39.0 °F 89% 29.83 in 7.0 mi NW 23.0 mph 29.9 mph 0.06 in Rain Light Rain
7:02 PM 41.0 °F 31.1 °F 37.4 °F 87% 29.78 in 6.0 mi NW 23.0 mph 28.8 mph 0.03 in Rain Rain
7:16 PM 39.2 °F 31.2 °F 35.6 °F 87% 29.78 in 10.0 mi NNW 13.8 mph 24.2 mph 0.04 in Rain Light Rain
7:53 PM 39.0 °F 32.3 °F 35.1 °F 86% 29.83 in 10.0 mi NW 10.4 mph - 0.04 in   Overcast
8:33 PM 39.2 °F 32.5 °F 35.6 °F 87% 29.79 in 10.0 mi WNW 10.4 mph - N/A   Overcast
8:53 PM 37.0 °F 25.6 °F 33.1 °F 86% 29.84 in 10.0 mi WNW 24.2 mph 32.2 mph 0.00 in Rain Light Rain
9:31 PM 35.6 °F 27.5 °F 33.8 °F 93% 29.80 in 9.0 mi WNW 11.5 mph 20.7 mph 0.01 in Snow Light Snow
9:53 PM 35.1 °F 24.5 °F 32.0 °F 89% 29.83 in 10.0 mi NW 18.4 mph 23.0 mph 0.01 in Rain Light Rain
10:07 PM 35.6 °F 25.2 °F 33.8 °F 93% 29.80 in 10.0 mi NW 18.4 mph 25.3 mph 0.00 in Snow Light Snow
10:13 PM 35.6 °F 25.5 °F 32.0 °F 87% 29.80 in 9.0 mi NW 17.3 mph 25.3 mph 0.00 in Snow Light Snow
10:29 PM 33.8 °F 24.3 °F 32.0 °F 93% 29.80 in 2.5 mi NW 13.8 mph 21.9 mph 0.03 in Snow Light Snow
10:49 PM 33.8 °F 25.3 °F 32.0 °F 93% 29.80 in 1.8 mi NW 11.5 mph - 0.05 in Snow Light Snow
10:53 PM 33.1 °F 24.4 °F 32.0 °F 96% 29.84 in 1.8 mi WNW 11.5 mph - 0.05 in Snow Light Snow
11:04 PM 33.8 °F 24.8 °F 32.0 °F 93% 29.80 in 2.0 mi NW 12.7 mph - 0.01 in Snow Light Snow
11:22 PM 33.8 °F 23.5 °F 32.0 °F 93% 29.80 in 5.0 mi NW 16.1 mph 21.9 mph N/A Snow Light Snow
11:53 PM 35.1 °F 25.5 °F 32.0 °F 89% 29.85 in 10.0 mi NNW 15.0 mph - 0.03 in Rain Light Rain